Mitchell, SD

12:05 AM CDT on May 01, 2017 (GMT -0500)
Mitchell Municipal

Weather History for KMHE - March, 2013

Change the Weather History Date:

Saturday, March 9, 2013

  Actual Average Record
Temperature  
Mean Temperature 33 °F 31 °F  
Max Temperature 36 °F 41 °F 72 °F (1936)
Min Temperature 29 °F 21 °F -11 °F (1995)
Degree Days  
Heating Degree Days 32 34  
Month to date heating degree days 346 316  
Since 1 July heating degree days 5811 5838  
Cooling Degree Days 0 0  
Month to date cooling degree days 0 0  
Year to date cooling degree days 0 0  
Moisture  
Dew Point 30 °F    
Average Humidity 92    
Maximum Humidity 100    
Minimum Humidity 85    
Precipitation  
Precipitation 0.63 in 0.03 in 0.63 in (2013)
Month to date precipitation 0.67 0.23  
Year to date precipitation 2.24 0.79  
Snow  
Snow 1.50 in - 8.00 in (1918)
Month to date snowfall 1.7  
Since 1 July snowfall 29.6  
Snow Depth 2.00 in    
Sea Level Pressure  
Sea Level Pressure 29.81 in    
Wind  
Wind Speed 14 mph (North)    
Max Wind Speed 29 mph    
Max Gust Speed 36 mph    
Visibility 2 miles    
Events Fog , Rain , Snow    
T = Trace of Precipitation, MM = Missing Value Source: NWS Daily Summary

Daily Weather History Graph

Daily Weather History Graph

Search for Another Location

Airport or City:

Trip Planner

Search our weather history database for the weather conditions in past years. The results will help you decide how hot, cold, wet, or windy it might be!

Date:

Astronomy

Mar. 09, 2013 Rise Set
Actual Time 6:54 AM CST 6:31 PM CST
Civil Twilight 6:25 AM CST 6:59 PM CST
Nautical Twilight 5:52 AM CST 7:33 PM CST
Astronomical Twilight 5:19 AM CST 8:07 PM CST
Moon 5:22 AM CST (3/9) 4:32 PM CST (3/9)
Length of Visible Light 12h 34m
Length of Day
11h 36m
Waning Crescent, 5% of the Moon is Illuminated
Mar 9
Waning Crescent
Mar 11
New
Mar 19
First Quarter
Mar 27
Full
Apr 2
Last Quarter

Hourly Weather History & Observations

Time (CST) Temp. Windchill Dew Point Humidity Pressure Visibility Wind Dir Wind Speed Gust Speed Precip Events Conditions
12:08 AM 35.6 °F 31.7 °F 33.8 °F 93% 29.87 in 2.5 mi ESE 4.6 mph - 0.00 in   Overcast
12:17 AM 35.6 °F 30.7 °F 33.8 °F 93% 29.87 in 3.0 mi SE 5.8 mph - 0.00 in   Overcast
12:53 AM 36.0 °F 31.1 °F 34.0 °F 93% 29.90 in 2.5 mi SE 5.8 mph - 0.00 in Rain Light Rain
1:02 AM 35.6 °F 31.7 °F 33.8 °F 93% 29.86 in 2.5 mi ESE 4.6 mph - 0.00 in Rain Light Rain
1:32 AM 35.6 °F 30.7 °F 33.8 °F 93% 29.84 in 1.5 mi ESE 5.8 mph - 0.00 in Rain Light Rain
1:53 AM 35.1 °F 32.2 °F 34.0 °F 96% 29.87 in 1.0 mi East 3.5 mph - 0.00 in Rain Light Rain
2:00 AM 35.6 °F 32.8 °F 33.8 °F 93% 29.83 in 1.0 mi ENE 3.5 mph - 0.00 in Rain Light Rain
2:05 AM 35.6 °F 31.7 °F 33.8 °F 93% 29.83 in 1.0 mi ENE 4.6 mph - 0.00 in Rain Light Rain
2:53 AM 35.1 °F 30.1 °F 34.0 °F 96% 29.84 in 1.2 mi East 5.8 mph - 0.00 in   Overcast
3:53 AM 35.1 °F 32.2 °F 34.0 °F 96% 29.82 in 1.8 mi East 3.5 mph - 0.00 in Rain Light Rain
4:31 AM 35.6 °F 29.9 °F 33.8 °F 93% 29.77 in 0.8 mi NNE 6.9 mph - 0.00 in   Overcast
4:53 AM 35.1 °F 30.1 °F 34.0 °F 96% 29.80 in 0.5 mi NNE 5.8 mph - 0.00 in Fog Fog
5:53 AM 35.1 °F 31.0 °F 33.1 °F 92% 29.79 in 0.5 mi NE 4.6 mph - 0.01 in Fog , Rain Light Rain
6:51 AM 35.6 °F 30.7 °F 33.8 °F 93% 29.74 in 1.0 mi NNE 5.8 mph - 0.00 in Rain Light Rain
6:53 AM 35.1 °F 30.1 °F 34.0 °F 96% 29.77 in 1.0 mi NNE 5.8 mph - 0.00 in Rain Light Rain
7:39 AM 33.8 °F 27.0 °F 33.8 °F 100% 29.73 in 0.5 mi NNW 8.1 mph - 0.04 in Fog , Rain Rain
7:53 AM 34.0 °F 26.0 °F 33.1 °F 96% 29.75 in 0.8 mi North 10.4 mph - 0.11 in Rain Rain
8:01 AM 33.8 °F 25.3 °F 33.8 °F 100% 29.71 in 0.5 mi North 11.5 mph - 0.05 in Fog , Rain Heavy Rain
8:18 AM 33.8 °F 27.0 °F 33.8 °F 100% 29.71 in 0.8 mi North 8.1 mph - 0.13 in Rain Rain
8:26 AM 33.8 °F 29.6 °F 33.8 °F 100% 29.73 in 1.2 mi North 4.6 mph - 0.14 in Rain Rain
8:53 AM 34.0 °F 28.0 °F 32.0 °F 92% 29.76 in 1.2 mi North 6.9 mph - 0.17 in Rain Rain
9:53 AM 34.0 °F 27.2 °F 33.1 °F 96% 29.75 in 1.0 mi North 8.1 mph - 0.09 in Rain Rain
10:30 AM 33.8 °F 23.9 °F 33.8 °F 100% 29.72 in 2.5 mi NNW 15.0 mph - 0.06 in Rain Light Rain
10:44 AM 33.8 °F 23.9 °F 33.8 °F 100% 29.71 in 3.0 mi NNW 15.0 mph - 0.07 in Rain Rain
10:53 AM 34.0 °F 24.6 °F 33.1 °F 96% 29.76 in 3.0 mi NNW 13.8 mph - 0.07 in Rain Light Rain
11:53 AM 33.1 °F 23.9 °F 32.0 °F 96% 29.78 in 6.0 mi NW 12.7 mph - 0.03 in Rain Light Rain
12:24 PM 33.8 °F 24.3 °F 30.2 °F 87% 29.71 in 2.0 mi North 13.8 mph - 0.05 in Rain Rain
12:38 PM 33.8 °F 25.3 °F 30.2 °F 87% 29.74 in 3.0 mi NNW 11.5 mph - 0.06 in Rain Light Rain
12:53 PM 33.1 °F 23.0 °F 30.9 °F 92% 29.76 in 3.0 mi NNW 15.0 mph - 0.07 in Snow Light Snow
12:59 PM 32.0 °F 20.8 °F 30.2 °F 93% 29.73 in 1.8 mi NNW 17.3 mph - 0.00 in Snow Light Snow
1:13 PM 32.0 °F 20.1 °F 30.2 °F 93% 29.71 in 2.0 mi NNW 19.6 mph 25.3 mph 0.01 in Snow Light Snow
1:29 PM 32.0 °F 19.2 °F 28.4 °F 87% 29.69 in 1.8 mi North 23.0 mph 28.8 mph 0.01 in Snow Light Snow
1:36 PM 32.0 °F 19.5 °F 30.2 °F 93% 29.69 in 2.5 mi NNW 21.9 mph 28.8 mph 0.01 in Snow Light Snow
1:53 PM 32.0 °F 20.5 °F 30.0 °F 92% 29.74 in 3.0 mi North 18.4 mph 25.3 mph 0.02 in   Overcast
2:11 PM 32.0 °F 19.5 °F 30.2 °F 93% 29.69 in 2.5 mi NNW 21.9 mph 25.3 mph 0.00 in Snow Light Snow
2:21 PM 32.0 °F 19.8 °F 28.4 °F 87% 29.71 in 4.0 mi NNW 20.7 mph - 0.00 in   Overcast
2:53 PM 30.9 °F 18.4 °F 28.0 °F 89% 29.77 in 5.0 mi NNW 20.7 mph - 0.00 in   Overcast
3:29 PM 30.2 °F 17.4 °F 28.4 °F 93% 29.73 in 1.8 mi NNW 20.7 mph - 0.00 in Snow Light Snow
3:48 PM 30.2 °F 17.1 °F 28.4 °F 93% 29.74 in 0.5 mi NNW 21.9 mph 27.6 mph 0.00 in Fog , Snow Snow
3:53 PM 30.9 °F 17.8 °F 28.0 °F 89% 29.78 in 0.5 mi NNW 23.0 mph - 0.00 in Fog , Snow Snow
4:10 PM 30.2 °F 17.8 °F 28.4 °F 93% 29.76 in 2.5 mi NNW 19.6 mph 27.6 mph 0.00 in Snow Light Snow
4:17 PM 30.2 °F 17.4 °F 28.4 °F 93% 29.76 in 4.0 mi North 20.7 mph 28.8 mph 0.00 in Snow Light Snow
4:33 PM 30.2 °F 17.1 °F 26.6 °F 86% 29.78 in 2.5 mi NNW 21.9 mph - 0.00 in Snow Light Snow
4:50 PM 30.2 °F 17.1 °F 26.6 °F 86% 29.79 in 1.5 mi NNW 21.9 mph 26.5 mph 0.00 in Snow Light Snow
4:53 PM 30.0 °F 18.3 °F 27.0 °F 88% 29.83 in 1.5 mi NNW 17.3 mph 26.5 mph 0.00 in Snow Light Snow
5:15 PM 30.2 °F 17.8 °F 26.6 °F 86% 29.80 in 1.2 mi North 19.6 mph - 0.00 in Snow Light Snow
5:44 PM 28.4 °F 15.1 °F 26.6 °F 93% 29.82 in 0.8 mi North 20.7 mph - 0.00 in Snow Light Snow
5:53 PM 28.9 °F 15.1 °F 27.0 °F 92% 29.86 in 1.0 mi North 23.0 mph 28.8 mph 0.00 in Snow Light Snow
6:00 PM 28.4 °F 14.4 °F 26.6 °F 93% 29.81 in 0.8 mi North 23.0 mph 28.8 mph 0.00 in Snow Light Snow
6:08 PM 28.4 °F 14.7 °F 26.6 °F 93% 29.82 in 0.5 mi NNW 21.9 mph 29.9 mph 0.00 in Fog , Snow Snow
6:15 PM 28.4 °F 14.7 °F 26.6 °F 93% 29.84 in 0.8 mi NNW 21.9 mph 29.9 mph 0.00 in Snow Light Snow
6:23 PM 28.4 °F 14.1 °F 26.6 °F 93% 29.84 in 1.0 mi North 24.2 mph 29.9 mph 0.00 in Snow Light Snow
6:53 PM 28.9 °F 15.8 °F 27.0 °F 92% 29.89 in 1.0 mi North 20.7 mph 28.8 mph 0.00 in Snow Light Snow
7:15 PM 28.4 °F 15.1 °F 26.6 °F 93% 29.86 in 1.5 mi North 20.7 mph - 0.00 in Snow Light Snow
7:53 PM 30.0 °F 16.9 °F 27.0 °F 88% 29.92 in 1.5 mi North 21.9 mph 25.3 mph 0.00 in Snow Light Snow
8:04 PM 30.2 °F 17.8 °F 26.6 °F 86% 29.88 in 2.0 mi North 19.6 mph 26.5 mph 0.00 in Snow Light Snow
8:18 PM 30.2 °F 17.8 °F 26.6 °F 86% 29.88 in 2.0 mi NNW 19.6 mph 27.6 mph 0.00 in Snow Light Snow
8:38 PM 30.2 °F 17.4 °F 26.6 °F 86% 29.89 in 2.0 mi North 20.7 mph 26.5 mph 0.00 in Snow Light Snow
8:51 PM 30.2 °F 18.1 °F 26.6 °F 86% 29.90 in 2.5 mi North 18.4 mph - 0.00 in Snow Light Snow
8:53 PM 30.0 °F 18.3 °F 27.0 °F 88% 29.95 in 2.0 mi North 17.3 mph - 0.00 in Snow Light Snow
9:15 PM 30.2 °F 17.8 °F 26.6 °F 86% 29.92 in 2.5 mi NNW 19.6 mph - 0.00 in Snow Light Snow
9:22 PM 30.2 °F 17.4 °F 26.6 °F 86% 29.92 in 3.0 mi North 20.7 mph - 0.00 in Snow Light Snow
9:53 PM 30.9 °F 17.8 °F 27.0 °F 85% 29.98 in 4.0 mi North 23.0 mph 29.9 mph 0.00 in Snow Light Snow
10:35 PM 30.2 °F 18.1 °F 28.4 °F 93% 29.92 in 10.0 mi NNW 18.4 mph 26.5 mph 0.00 in   Overcast
10:53 PM 30.9 °F 19.1 °F 28.0 °F 89% 29.98 in 9.0 mi North 18.4 mph - 0.00 in   Overcast
11:53 PM 30.9 °F 16.4 °F 27.0 °F 85% 29.98 in 6.0 mi North 28.8 mph 35.7 mph 0.00 in   Overcast